User: anonymous   Login
Location: Apeadero de Los Molinos-Guadarrama
(40.7091°N, 4.0689°W)
Time: 02:25:30
(UTC+00:00)
Language:

CZ-4C R/B - Orbit

View from above orbital plane
View from above orbital plane
View from above satellite
View from above satellite

Ground track
Ground track

The orbit data is extracted from the following two-line orbital elements,

1 36416U 10009D   21208.42687463 -.00000006  00000-0  44719-4 0  9999
2 36416  63.4174 191.7418 0534952 355.6723   3.9781 13.69597669569781
Epoch (UTC): 27 July 2021 10:14:41
Eccentricity: 0.0534952
inclination: 63.4174°
perigee height: 606 km
apogee height: 1396 km
right ascension of ascending node: 191.7418°
argument of perigee: 355.6723°
revolutions per day: 13.69597669
mean anomaly at epoch: 3.9781°
orbit number at epoch: 56978

The dashed part of the orbit path shows where the satellite is in the earth's shadow,  

DLR